Regional Weather Roundup
Issued by NWS

Home | Current Version | Previous Version | Graphics & Text | Print | Product List | Glossary On
Versions: 1 2 3 4 5 6 7 8 9 10 11 12 13 14 15 16 17 18 19 20 21 22 23 24 25 26 27 28 29 30 31 32 33 34 35 36 37 38 39 40 41 42 43 44 45 46 47 48 49 50
000
ASUS43 KOAX 212110
RWRNE

WEATHER ROUNDUP FOR NEBRASKA
NATIONAL WEATHER SERVICE OMAHA NE
300 PM CST SUN DEC 21 2014

NOTES: SATELLITE DATA IS BEING USED TO AUGMENT CLOUD COVER ABOVE
       12000 FEET.
       "FAIR" INDICATES FEW OR NO CLOUDS BELOW 12,000 FEET WITH NO
       SIGNIFICANT WEATHER AND/OR OBSTRUCTIONS TO VISIBILITY.

  * THESE STATIONS DO NOT REPORT WEATHER SUCH AS RAIN...SNOW OR FOG.

NEZ001>004-019>022-054>056-212200-
NEBRASKA PANHANDLE

CITY           SKY/WX    TMP DP  RH WIND       PRES   REMARKS
SCOTTSBLUFF    CLOUDY    44  32  62 W16       29.45F
ALLIANCE       CLOUDY    41  29  62 SW15      29.43F
CHADRON        CLOUDY    45  31  58 W9        29.39F
KIMBALL        CLOUDY    45  28  51 W6        29.49F
SIDNEY         CLOUDY    40  27  59 SW9       29.52F WCI  34
$$

NEZ057>060-069>072-079>082-212200-
SOUTHWEST NEBRASKA

CITY           SKY/WX    TMP DP  RH WIND       PRES   REMARKS
NORTH PLATTE   CLOUDY    42  31  64 S5        29.54F
IMPERIAL       CLOUDY    46  30  53 S7        29.53F
LEXINGTON      CLOUDY    39  37  91 S14       29.59S FOG     WCI  31
MCCOOK         CLOUDY    40  32  73 S13       29.57F WCI  32
OGALLALA       CLOUDY    36  30  79 W8        29.52F WCI  29
$$

NEZ005>010-023>029-035>040-094-212200-
NORTH CENTRAL NEBRASKA

CITY           SKY/WX    TMP DP  RH WIND       PRES   REMARKS
VALENTINE      CLOUDY    42  31  64 S9        29.43F
AINSWORTH      PTSUNNY   38  31  74 S13       29.47F WCI  31
BROKEN BOW     CLOUDY    38  33  82 S18G25    29.56S WCI  28
O`NEILL        MOSUNNY   37  35  94 S12       29.54F FOG     WCI  29
THEDFORD       CLOUDY    41  31  67 SW10G17   29.50F
$$

NEZ041-046>049-061>064-073>077-083>087-212200-
SOUTH CENTRAL NEBRASKA

CITY           SKY/WX    TMP DP  RH WIND       PRES   REMARKS
GRAND ISLAND   CLOUDY    41  38  89 S15       29.64F FOG
AURORA         CLOUDY    40  40 100 S14G22    29.64F FOG     WCI  33
HASTINGS       CLOUDY    41  37  86 S14G23    29.62F
HEBRON         CLOUDY    42  38  89 S12       29.70F FOG
HOLDREGE       CLOUDY    40  37  89 S15       29.60F FOG     WCI  31
KEARNEY *      CLOUDY    39  36  87 S16G23    29.61F WCI  30
YORK           CLOUDY    41  39  93 S16       29.67F FOG
$$

NEZ011>018-030>034-042>045-212200-
NORTHEAST NEBRASKA

CITY           SKY/WX    TMP DP  RH WIND       PRES   REMARKS
NORFOLK        CLOUDY    40  37  89 S16G28    29.62F FOG     WCI  31
ALBION         CLOUDY    37  35  91 S14G22    29.62F FOG     WCI  28
BLAIR          CLOUDY    41  38  89 S22G29    29.71F FOG
COLUMBUS *     CLOUDY    41  36  81 S18       29.68F
FREMONT        CLOUDY    42  39  89 S16G23    29.71F
TEKAMAH        CLOUDY    42  38  85 S21G30    29.72F
WAYNE          CLOUDY    40  37  92 S22G28    29.65F FOG     WCI  29
$$

NEZ050>053-065>068-078-088>093-212200-
SOUTHEAST NEBRASKA

CITY           SKY/WX    TMP DP  RH WIND       PRES   REMARKS
LINCOLN        CLOUDY    41  39  93 S12       29.73F FOG
OMAHA EPPLEY   CLOUDY    42  39  89 S21       29.76F
BEATRICE       CLOUDY    42  39  91 S15G22    29.74F
FALLS CITY     CLOUDY    43  39  86 S9        29.79F
NEBRASKA CITY  CLOUDY    41  40  98 S12       29.77F
PLATTSMOUTH    CLOUDY    40  38  90 S15       29.76S FOG     WCI  32
$$

NEZ044-045-051>053-067-212200-
OMAHA AREA

CITY           SKY/WX    TMP DP  RH WIND       PRES   REMARKS
OMAHA EPPLEY   CLOUDY    42  39  89 S21       29.76F
BLAIR          CLOUDY    41  38  89 S22G29    29.71F FOG
FREMONT        CLOUDY    42  39  89 S16G23    29.71F
MILLARD        CLOUDY    42  38  86 S10G17    29.75S
OFFUTT AFB     CLOUDY    41  37  87 S12       29.76S
PLATTSMOUTH    CLOUDY    40  38  90 S15       29.76S FOG     WCI  32
WAHOO          CLOUDY    42  37  85 S20       29.71F
$$


USA.gov is the U.S. government's official web portal to all federal, state and local government web resources and services.